User: anonymous   Login
Location: *
(37.5724°S, 58.0067°E)
Time: 16:33:05
(UTC+00:00)
Language:

Cosmos 1975 Rocket - Orbit

View from above orbital plane
View from above orbital plane
View from above satellite
View from above satellite

Ground track
Ground track

The orbit data is extracted from the following two-line orbital elements,

1 19574U 88093B   20337.81328181  .00000144  00000-0  14664-4 0  9995
2 19574  82.5340  42.6168 0020051 266.5937 231.8200 14.83347250715829
Epoch (UTC): 02 December 2020 19:31:07
Eccentricity: 0.0020051
inclination: 82.5340°
perigee height: 605 km
apogee height: 633 km
right ascension of ascending node: 42.6168°
argument of perigee: 266.5937°
revolutions per day: 14.83347250
mean anomaly at epoch: 231.8200°
orbit number at epoch: 71582

The dashed part of the orbit path shows where the satellite is in the earth's shadow,  

DLR